Eagle, AK

1:15 AM AKST on December 17, 2017 (GMT -0900)
Eagle

Weather History for PAEG - October, 2012

Change the Weather History Date:

Sunday, October 28, 2012

  Actual Average (PABN) Record (PABN)
Temperature  
Mean Temperature 10 °F -  
Max Temperature 19 °F 17 °F 41 °F (2013)
Min Temperature 3 °F 9 °F -5 °F (1997)
Degree Days  
Heating Degree Days 54    
Moisture  
Dew Point 8 °F    
Average Humidity 77    
Maximum Humidity 87    
Minimum Humidity 68    
Precipitation  
Precipitation 0.00 in - - ()
Sea Level Pressure  
Sea Level Pressure 30.17 in    
Wind  
Wind Speed 2 mph (SE)    
Max Wind Speed 12 mph    
Max Gust Speed 25 mph    
Visibility 8 miles    
Events Snow    
Averages and records for this station are not official NWS values.
T = Trace of Precipitation, MM = Missing Value Source: NWS Daily Summary

Daily Weather History Graph

Daily Weather History Graph

Search for Another Location

Airport or City:

Trip Planner

Search our weather history database for the weather conditions in past years. The results will help you decide how hot, cold, wet, or windy it might be!

Date:

Astronomy

Oct. 28, 2012 Rise Set
Actual Time 9:00 AM AKDT 5:14 PM AKDT
Civil Twilight 8:07 AM AKDT 6:08 PM AKDT
Nautical Twilight 7:09 AM AKDT 7:06 PM AKDT
Astronomical Twilight 6:12 AM AKDT 8:02 PM AKDT
Moon 4:36 PM AKDT (10/28) 7:56 AM AKDT (10/28)
Length of Visible Light 10h 01m
Length of Day
8h 13m
Waxing Gibbous, 99% of the Moon is Illuminated
Oct 28
Waxing Gibbous
Oct 29
Full
Nov 6
Last Quarter
Nov 13
New
Nov 20
First Quarter

Hourly Weather History & Observations

Time (AKDT) Temp. Windchill Dew Point Humidity Pressure Visibility Wind Dir Wind Speed Gust Speed Precip Events Conditions
12:53 AM 12.9 °F 6.9 °F 6.1 °F 74% 30.13 in 10.0 mi Variable 3.5 mph - 0.00 in   Overcast
1:53 AM 14.0 °F - 8.1 °F 77% 30.14 in 3.0 mi Calm Calm - 0.00 in Snow Light Snow
2:53 AM 12.9 °F - 9.0 °F 84% 30.14 in 6.0 mi Calm Calm - 0.00 in Snow Light Snow
3:48 AM 14.0 °F - 8.6 °F 79% 30.09 in 10.0 mi Calm Calm - 0.00 in   Overcast
3:53 AM 14.0 °F - 9.0 °F 80% 30.14 in 10.0 mi Calm Calm - 0.00 in   Overcast
4:53 AM 14.0 °F - 9.0 °F 80% 30.16 in 10.0 mi Calm Calm - N/A   Overcast
5:53 AM 14.0 °F - 9.0 °F 80% 30.17 in 10.0 mi Calm Calm - N/A   Overcast
6:53 AM 14.0 °F - 9.0 °F 80% 30.17 in 10.0 mi Calm Calm - N/A   Overcast
7:53 AM 14.0 °F - 8.1 °F 77% 30.18 in 10.0 mi Calm Calm - N/A   Overcast
8:53 AM 14.0 °F 8.2 °F 8.1 °F 77% 30.19 in 10.0 mi SE 3.5 mph - N/A   Overcast
9:53 AM 15.1 °F - 8.1 °F 74% 30.19 in 10.0 mi Calm Calm - N/A   Overcast
10:53 AM 16.0 °F - 9.0 °F 74% 30.20 in 7.0 mi Calm Calm - 0.00 in Snow Light Snow
11:11 AM 15.8 °F - 10.4 °F 79% 30.15 in 2.5 mi Calm Calm - 0.00 in Snow Light Snow
11:30 AM 15.8 °F - 8.6 °F 73% 30.15 in 3.0 mi Calm Calm - 0.00 in Snow Light Snow
11:53 AM 17.1 °F - 10.0 °F 74% 30.20 in 4.0 mi Calm Calm - 0.00 in Snow Light Snow
12:05 PM 15.8 °F - 10.4 °F 79% 30.14 in 3.0 mi Calm Calm - 0.00 in Snow Light Snow
12:53 PM 17.1 °F 10.0 °F 8.1 °F 68% 30.21 in 10.0 mi Variable 4.6 mph - 0.00 in   Mostly Cloudy
1:53 PM 18.0 °F 7.7 °F 9.0 °F 68% 30.20 in 10.0 mi ESE 8.1 mph - N/A   Overcast
2:53 PM 17.1 °F 10.0 °F 8.1 °F 68% 30.20 in 10.0 mi Variable 4.6 mph - N/A   Mostly Cloudy
3:53 PM 16.0 °F 8.8 °F 8.1 °F 71% 30.19 in 10.0 mi SE 4.6 mph - N/A   Clear
4:53 PM 15.1 °F 7.7 °F 8.1 °F 74% 30.19 in 10.0 mi SE 4.6 mph - N/A   Clear
5:53 PM 6.1 °F - 1.9 °F 83% 30.19 in 10.0 mi Calm Calm - N/A   Clear
6:53 PM 8.1 °F 1.4 °F 3.9 °F 83% 30.19 in 10.0 mi SE 3.5 mph - N/A   Clear
7:53 PM 3.9 °F - -0.0 °F 84% 30.18 in 10.0 mi Calm Calm - N/A   Clear
8:53 PM 5.0 °F - 1.9 °F 87% 30.17 in 10.0 mi Calm Calm - N/A   Clear
9:53 PM 15.1 °F 3.3 °F 10.0 °F 80% 30.15 in 10.0 mi SE 9.2 mph - N/A   Clear
10:53 PM 16.0 °F 5.3 °F 9.0 °F 74% 30.13 in 10.0 mi SE 8.1 mph 21.9 mph N/A   Clear
11:53 PM 16.0 °F 2.9 °F 9.0 °F 74% 30.11 in 10.0 mi SE 11.5 mph 25.3 mph N/A   Clear